| time (UTC) | temp C | wind direction | speed KPH | gust KPH | rain 1hr cm | rain 24hr cm | rain mn cm | humidity % | barometer mb |
| 20260902172159 | 8 | 250 | 8.0 | 0.0 | 0.00 | 0.00 | 0.00 | 93 | |
| 20260902162400 | 11 | 220 | 11.3 | 32.2 | 0.00 | 0.00 | 0.00 | 76 | |
| 20260902151958 | 10 | 250 | 19.3 | 0.0 | 0.00 | 0.00 | 0.00 | 87 | |
| 20260902142159 | 10 | 240 | 19.3 | 35.4 | 0.00 | 0.00 | 0.00 | 81 | |
| 20260902132159 | 11 | 230 | 22.5 | 0.0 | 0.00 | 0.00 | 0.00 | 81 | |
| 20260902121958 | 11 | 230 | 29.0 | 0.0 | 0.00 | 0.00 | 0.00 | 76 | |
| 20260902112159 | 10 | 240 | 29.0 | 49.9 | 0.00 | 0.00 | 0.00 | 76 | |
| 20260902102259 | 10 | 250 | 22.5 | 0.0 | 0.00 | 0.00 | 0.00 | 76 | |
| 20260902091959 | 8 | 240 | 29.0 | 46.7 | 0.00 | 0.00 | 0.00 | 87 | |
| 20260902082159 | 7 | 220 | 35.4 | 0.0 | 0.00 | 0.00 | 0.00 | 87 | |
| 20260902072059 | 7 | 230 | 38.6 | 0.0 | 0.00 | 0.00 | 0.00 | 99 | |
| 20260902061959 | 7 | 250 | 46.7 | 0.0 | 0.00 | 0.00 | 0.00 | 87 | |
| 20260902052141 | 7 | 220 | 41.8 | 0.0 | 0.00 | 0.00 | 0.00 | 75 | |
| 20260902042300 | 7 | 180 | 19.3 | 0.0 | 0.00 | 0.00 | 0.00 | 93 | |
| 20260902031957 | 7 | 210 | 19.3 | 0.0 | 0.00 | 0.00 | 0.00 | 93 | |
| 20260902022157 | 7 | 240 | 29.0 | 0.0 | 0.00 | 0.00 | 0.00 | 93 | |
| 20260902012158 | 7 | 210 | 22.5 | 38.6 | 0.00 | 0.00 | 0.00 | 93 | |
| 20260902001958 | 7 | 240 | 38.6 | 0.0 | 0.00 | 0.00 | 0.00 | 93 | |
| 20260901232142 | 7 | 240 | 41.8 | 0.0 | 0.00 | 0.00 | 0.00 | 93 | |
| 20260901222259 | 7 | 230 | 35.4 | 0.0 | 0.00 | 0.00 | 0.00 | 87 | |
| 20260901211958 | 7 | 230 | 32.2 | 0.0 | 0.00 | 0.00 | 0.00 | 93 | |
| 20260901202158 | 7 | 220 | 29.0 | 0.0 | 0.00 | 0.00 | 0.00 | 93 | |
| 20260901192158 | 7 | 210 | 35.4 | 53.1 | 0.00 | 0.00 | 0.00 | 99 | |
| 20260901181957 | 7 | 210 | 35.4 | 0.0 | 0.00 | 0.00 | 0.00 | 93 |